Weather History for ESSB - October, 2013

Change the Weather History Date:

Sunday, October 27, 2013

  Actual Average Record
Temperature  
Mean Temperature 55 °F -  
Max Temperature 58 °F 40 °F 58 °F (2013)
Min Temperature 52 °F 33 °F 17 °F (2003)
Degree Days  
Heating Degree Days 10    
Growing Degree Days 5 (Base 50)    
Moisture  
Dew Point 52 °F    
Average Humidity 89    
Maximum Humidity 100    
Minimum Humidity 74    
Precipitation  
Precipitation 0.00 in - - ()
Sea Level Pressure  
Sea Level Pressure 29.38 in    
Wind  
Wind Speed 7 mph ()    
Max Wind Speed 13 mph    
Max Gust Speed -    
Visibility 7.7 miles    
Events Rain    
Averages and records for this station are not official NWS values.
T = Trace of Precipitation, MM = Missing Value Source: Averaged Metar Reports

Daily Weather History Graph

Daily Weather History Graph

Search for Another Location

Airport or City:

Trip Planner

Search our weather history database for the weather conditions in past years. The results will help you decide how hot, cold, wet, or windy it might be!

Date:

Astronomy

Oct. 27, 2013 Rise Set
Actual Time 6:55 AM CET 4:07 PM CET
Civil Twilight 6:12 AM CET 4:51 PM CET
Nautical Twilight 5:24 AM CET 5:38 PM CET
Astronomical Twilight 4:37 AM CET 6:25 PM CET
Moon 11:07 PM CET (10/27) 1:37 PM CET (10/27)
Length of Visible Light 10h 38m
Length of Day
9h 12m
Last Quarter, 45% of the Moon is Illuminated
Oct 27
Last Quarter
Nov 3
New
Nov 10
First Quarter
Nov 17
Full
Nov 25
Last Quarter

Hourly Weather History & Observations

Time (CET) Temp. Dew Point Humidity Pressure Visibility Wind Dir Wind Speed Gust Speed Precip Events Conditions
12:00 AM 55 °F 50 °F 79% 29.49 in 11 mi SW 8.9 mph - -   Scattered Clouds
12:20 AM 55.4 °F 50.0 °F 82% 29.47 in 6.2 mi SW 10.4 mph - N/A   Overcast
12:50 AM 55.4 °F 50.0 °F 82% 29.47 in 6.2 mi WSW 9.2 mph - N/A   Light Drizzle
1:00 AM 55 °F 51 °F 81% 29.49 in 14 mi SW 6.7 mph - - Rain Drizzle
1:20 AM 55.4 °F 50.0 °F 82% 29.47 in 6.2 mi SW 8.1 mph - N/A   Overcast
1:50 AM 55.4 °F 50.0 °F 82% 29.47 in 6.2 mi SW 6.9 mph - N/A   Overcast
2:00 AM 55 °F 50 °F 79% 29.49 in 10 mi SW 6.7 mph - -   Overcast
2:20 AM 55.4 °F 50.0 °F 82% 29.47 in 6.2 mi SW 6.9 mph - N/A   Mostly Cloudy
2:50 AM 53.6 °F 50.0 °F 88% 29.47 in 6.2 mi SW 6.9 mph - N/A   Overcast
2:00 AM 54 °F 50 °F 82% 29.49 in 14 mi SW 4.5 mph - -   Scattered Clouds
2:20 AM 55.4 °F 50.0 °F 82% 29.47 in 6.2 mi SW 8.1 mph - N/A   Overcast
2:50 AM 53.6 °F 50.0 °F 88% 29.47 in 6.2 mi SW 8.1 mph - N/A   Overcast
3:00 AM 54 °F 50 °F 83% 29.49 in 14 mi SW 6.7 mph - -   Mostly Cloudy
3:20 AM 53.6 °F 50.0 °F 88% 29.47 in 6.2 mi SW 6.9 mph - N/A   Mostly Cloudy
3:50 AM 53.6 °F 50.0 °F 88% 29.47 in 6.2 mi SSW 6.9 mph - N/A   Overcast
4:00 AM 53 °F 51 °F 88% 29.50 in 17 mi SSW 4.5 mph - -   Mostly Cloudy
4:20 AM 53.6 °F 51.8 °F 94% 29.47 in 6.2 mi SSW 6.9 mph - N/A   Overcast
4:50 AM 53.6 °F 51.8 °F 94% 29.47 in 6.2 mi SSW 5.8 mph - N/A   Mostly Cloudy
5:00 AM 53 °F 51 °F 91% 29.49 in 22 mi SSW 4.5 mph - -   Scattered Clouds
5:20 AM 53.6 °F 51.8 °F 94% 29.47 in 6.2 mi SSW 5.8 mph - N/A   Overcast
5:50 AM 51.8 °F 51.8 °F 100% 29.47 in 6.2 mi SSW 6.9 mph - N/A   Mostly Cloudy
6:00 AM 52 °F 51 °F 95% 29.49 in 22 mi South 4.5 mph - -   Partly Cloudy
6:20 AM 53.6 °F 51.8 °F 94% 29.47 in 6.2 mi South 5.8 mph - N/A   Mostly Cloudy
6:50 AM 53.6 °F 51.8 °F 94% 29.47 in 6.2 mi SSW 5.8 mph - N/A   Overcast
7:00 AM 53 °F 52 °F 94% 29.48 in 22 mi South 4.5 mph - -   Scattered Clouds
7:20 AM 53.6 °F 51.8 °F 94% 29.47 in 6.2 mi SSW 5.8 mph - N/A   Overcast
7:50 AM 53.6 °F 51.8 °F 94% 29.47 in 6.2 mi South 5.8 mph - N/A   Mostly Cloudy
8:00 AM 54 °F 52 °F 90% 29.47 in 19 mi South 6.7 mph - -   Scattered Clouds
8:20 AM 53.6 °F 51.8 °F 94% 29.47 in 6.2 mi SSW 6.9 mph - N/A   Drizzle
8:50 AM 53.6 °F 51.8 °F 94% 29.44 in 3.7 mi South 8.1 mph - N/A Rain Rain
9:00 AM 54 °F 52 °F 92% 29.47 in 7 mi South 6.7 mph - - Rain Light Rain Showers
9:20 AM 53.6 °F 53.6 °F 100% 29.44 in 5.0 mi South 4.6 mph - N/A   Mostly Cloudy
9:50 AM 53.6 °F 53.6 °F 100% 29.44 in 6.2 mi South 4.6 mph - N/A   Mostly Cloudy
10:00 AM 54 °F 53 °F 95% 29.45 in 14 mi South 4.5 mph - - Rain Drizzle
10:20 AM 53.6 °F 53.6 °F 100% 29.44 in 6.2 mi South 5.8 mph - N/A   Overcast
10:50 AM 55.4 °F 53.6 °F 94% 29.44 in 6.2 mi South 4.6 mph - N/A   Mostly Cloudy
11:00 AM 56 °F 53 °F 88% 29.44 in 19 mi South 6.7 mph - -   Scattered Clouds
11:20 AM 57.2 °F 53.6 °F 88% 29.42 in 6.2 mi SSW 6.9 mph - N/A   Scattered Clouds
11:50 AM 57.2 °F 51.8 °F 82% 29.42 in 6.2 mi South 8.1 mph - N/A   Scattered Clouds
12:00 PM 57 °F 53 °F 80% 29.43 in 25 mi South 8.9 mph - -   Partly Cloudy
12:20 PM 57.2 °F 51.8 °F 82% 29.42 in 6.2 mi South 9.2 mph - N/A   Scattered Clouds
12:50 PM 57.2 °F 51.8 °F 82% 29.39 in 6.2 mi South 9.2 mph - N/A   Scattered Clouds
1:00 PM 58 °F 52 °F 74% 29.40 in 22 mi South 8.9 mph - -   Mostly Cloudy
1:20 PM 57.2 °F 51.8 °F 82% 29.39 in 6.2 mi SSE 8.1 mph - N/A   Mostly Cloudy
1:50 PM 57.2 °F 51.8 °F 82% 29.36 in 6.2 mi South 9.2 mph - N/A   Scattered Clouds
2:00 PM 57 °F 52 °F 76% 29.38 in 25 mi South 8.9 mph - -   Partly Cloudy
2:20 PM 57.2 °F 51.8 °F 82% 29.36 in - South 9.2 mph - N/A   Clear
2:50 PM 57.2 °F 51.8 °F 82% 29.36 in - South 8.1 mph - N/A   Clear
3:00 PM 57 °F 52 °F 76% 29.36 in 22 mi South 8.9 mph - -   Overcast
3:20 PM 57.2 °F 51.8 °F 82% 29.36 in - South 9.2 mph - N/A   Clear
3:50 PM 55.4 °F 51.8 °F 88% 29.33 in 6.2 mi SSE 8.1 mph - N/A   Mostly Cloudy
4:00 PM 55 °F 51 °F 84% 29.33 in 17 mi South 8.9 mph - -   Mostly Cloudy
4:20 PM 55.4 °F 51.8 °F 88% 29.33 in - SSE 8.1 mph - N/A   Clear
4:50 PM 53.6 °F 51.8 °F 94% 29.30 in 6.2 mi SSE 6.9 mph - N/A   Mostly Cloudy
5:00 PM 54 °F 52 °F 89% 29.30 in 12 mi SSE 8.9 mph - - Rain Light Rain
5:20 PM 55.4 °F 51.8 °F 88% 29.30 in 6.2 mi SSE 11.5 mph - N/A Rain Light Rain
5:50 PM 53.6 °F 51.8 °F 94% 29.27 in 6.2 mi SSE 8.1 mph - N/A   Mostly Cloudy
6:00 PM 54 °F 52 °F 90% 29.26 in 12 mi SSE 8.9 mph - - Rain Rain
6:20 PM 53.6 °F 51.8 °F 94% 29.24 in 6.2 mi SSE 6.9 mph - N/A   Scattered Clouds
6:50 PM 53.6 °F 51.8 °F 94% 29.24 in 6.2 mi SSE 9.2 mph - N/A   Mostly Cloudy
7:00 PM 53 °F 51 °F 92% 29.24 in 8 mi SSE 8.9 mph - -   Mostly Cloudy
7:20 PM 53.6 °F 51.8 °F 94% 29.24 in 6.2 mi SSE 9.2 mph - N/A   Mostly Cloudy
7:50 PM 53.6 °F 51.8 °F 94% 29.21 in 3.1 mi SSE 11.5 mph - N/A   Mostly Cloudy
8:00 PM 53 °F 52 °F 96% 29.21 in 5 mi SSE 8.9 mph - -   Mist
8:20 PM 53.6 °F 51.8 °F 94% 29.21 in 6.2 mi SSE 9.2 mph - N/A   Mostly Cloudy
8:50 PM 53.6 °F 51.8 °F 94% 29.18 in 6.2 mi South 12.7 mph - N/A   Mostly Cloudy
9:00 PM 54 °F 51 °F 88% 29.17 in 10 mi SSE 11.2 mph - -   Scattered Clouds
9:20 PM 53.6 °F 51.8 °F 94% 29.15 in 6.2 mi SSE 11.5 mph - N/A   Mostly Cloudy
9:50 PM 53.6 °F 51.8 °F 94% 29.15 in 5.0 mi South 11.5 mph - N/A Rain Light Rain
10:00 PM 54 °F 52 °F 92% 29.15 in 6 mi South 6.7 mph - - Rain Light Rain
10:20 PM 53.6 °F 51.8 °F 94% 29.12 in 5.0 mi South 9.2 mph - N/A   Drizzle
10:50 PM 53.6 °F 51.8 °F 94% 29.12 in 6.2 mi South 10.4 mph - N/A   Mostly Cloudy